Regional Weather Roundup
Issued by NWS Midland/Odessa, TX

Skip options and go directly to product.
Home | Oldest Version | Previous Version | Current Version | All | Text Only | Save Text | Print | Product List | Glossary On

Skip product version selection by date and time.   
902
ASUS44 KMAF 302210
RWRMAF
MIDLAND AREA WEATHER ROUNDUP
NATIONAL WEATHER SERVICE MIDLAND TX
500 PM CDT MON MAY 30 2016

...IN SOUTHWEST TEXAS AND SOUTHEAST NEW MEXICO...

CITY           SKY/WX    TMP DP  RH WIND       PRES   REMARKS
ALPINE         CLOUDY    78  51  37 NE12      30.09F
ANDREWS        FAIR      86  55  34 S7        29.93F
ARTESIA        CLOUDY    81  48  32 SE17G26   29.94F
BIG SPRING     MOSUNNY   82  62  50 SE10      29.94F
CARLSBAD       LGT RAIN  73  62  68 SE8       29.94R
DRYDEN           N/A     88  68  51 E17G29    29.89F
FORT STOCKTON  NOT AVBL
GUAD PASS      NOT AVBL
HOBBS          PTSUNNY   82  55  39 SE10      29.98F
MARFA          SUNNY     77  47  34 E7        30.07F
MIDLAND AIRPK  PTSUNNY   94  56  27 S10       29.91F
MIDLAND INTL   MOSUNNY   91  57  31 S15G22    29.91F
ODESSA         MOSUNNY   90  57  32 SW12G18   29.92F
PECOS          CLOUDY    92  51  24 SE9G16    29.87F
PRESIDIO       FAIR      94  54  26 N18G25    29.85F
SEMINOLE       CLOUDY    86  51  30 S3        29.95F
SNYDER           N/A     85  67  54 SE10      29.93F
WINK           SUNNY     89  54  30 S7        29.87F
$$
...OTHER STATIONS IN TEXAS...

CITY           SKY/WX    TMP DP  RH WIND       PRES   REMARKS
ABILENE        MOSUNNY   86  69  56 SW12      29.92F
AMARILLO       SUNNY     80  60  50 SW17      29.96F
AUSTIN         MOSUNNY   87  69  54 SE7       29.90F
BROWNSVILLE    PTSUNNY   80  77  90 E14       29.89F
CORPUS CHRISTI MOSUNNY   86  73  65 S13G23    29.88F
DALLAS FTW     PTSUNNY   84  62  47 CALM      29.92F
DEL RIO        CLOUDY    84  68  58 S18G24    29.91S
EL PASO        CLOUDY    86  39  19 S29G40    29.93S
HOUSTON INT    MOSUNNY   84  71  65 E8        29.93F
LUBBOCK        PTSUNNY   81  65  58 S13       29.95F
SAN ANGELO     MOSUNNY   84  68  58 S13       29.93F
SAN ANTONIO    MOSUNNY   87  65  47 VRB6      29.91F
WACO           SUNNY     86  65  49 NE6       29.91F
WICHITA FALLS  NOT AVBL
$$
...OTHER LOCATIONS IN NEW MEXICO...

CITY           SKY/WX    TMP DP  RH WIND       PRES   REMARKS
ALAMAGORDO     PTSUNNY   84  36  17 SW14      29.94S
ALBUQUERQUE    PTSUNNY   83  21  10 VRB5      29.98F
CANNON AFB     MOSUNNY   85  51  31 S10       29.96F
CLOVIS         MOSUNNY   84  52  32 S12       29.96F
HOLLOMAN AFB   CLOUDY    84  39  20 W21       29.93R
ROSWELL        CLOUDY    86  46  24 S24G35    29.94R
RUIDOSO        LGT RAIN  66  39  37 W16G23    30.14S
SANTA FE       SUNNY     80  14   8 VRB6G18   30.04F
TRUTH OR CONSE CLOUDY    85  29  13 SW16G22   29.95F
TUCUMCARI      SUNNY     88  36  15 SW13      29.90F
$$

USA.gov is the U.S. government's official web portal to all federal, state and local government web resources and services.